Zurück zum Katalog

SL-8 R/B

AktivPO
NORAD 11804·ROCKET BODY·🇷🇺 Russia

Gestartet May 20, 1980 von Plesetsk Cosmodrome

Loading…

Nächste Überflüge (nächste 24 Stunden)

TLE

AktuellSource: Space-Track

Epoche: Sep 14, 2026, 07:44 UTC

1 11804U 80039B   26257.32262623  .00000134  00000-0  12132-3 0  9992
2 11804  82.9391 104.6843 0021168 156.1619 204.0524 13.76600509325522

Verfolge SL-8 R/B in Echtzeit mit AllMySat

Download on the App Store